GFSNE_sfc_rhum_138.txt.gz
RH
83 80 73 78 88 79 82 89 81 83 83 76 80 68 79 78 72 68 69 97 100 100 100 100 99 99 99 98 97 94 93 93 92 92 92 91 88 83
82 81 72 66 73 76 92 90 88 89 89 79 77 77 76 81 93 74 68 85 99 100 100 100 100 99 99 99 100 98 96 95 94 94 93 92 90 86
90 90 89 82 79 73 79 89 90 81 92 84 83 89 94 92 90 86 79 72 62 100 100 100 100 100 100 100 100 100 98 98 97 96 94 94 92 88
90 88 89 79 86 88 90 88 95 95 94 84 81 91 95 90 89 87 74 70 67 86 100 100 100 100 100 100 100 100 100 100 100 98 97 95 94 91
89 88 89 88 89 87 87 89 92 81 95 95 93 91 89 88 88 77 75 72 69 87 100 100 100 100 100 100 100 100 100 100 100 100 100 100 98 95
90 90 88 88 90 88 86 87 88 92 93 95 94 90 92 90 91 91 87 79 78 73 90 99 99 100 99 100 99 99 100 100 100 100 100 100 100 100
94 90 94 90 89 89 84 87 86 88 88 92 93 92 94 94 96 95 94 92 97 92 89 86 98 94 95 99 99 99 100 100 100 100 99 100 100 100
92 89 87 93 95 89 88 88 89 84 88 88 93 93 92 94 95 97 96 95 98 90 94 94 94 96 96 95 98 100 100 100 100 100 100 100 100 100
90 88 84 83 83 79 84 87 90 88 88 87 93 96 94 97 93 92 94 95 97 90 87 96 93 98 95 92 94 96 97 99 100 100 100 100 100 100
86 87 88 89 88 83 83 94 94 93 94 94 95 96 97 95 92 84 86 88 96 90 91 98 99 100 99 97 94 94 93 94 94 95 95 96 97 98
82 81 83 84 75 78 84 84 87 92 84 78 78 79 79 81 85 84 92 88 95 95 93 97 96 100 100 100 100 98 97 97 97 96 95 94 94 94
75 79 70 73 71 74 85 84 85 86 83 84 88 89 86 88 80 97 92 91 91 90 93 96 95 96 97 100 100 100 100 99 97 98 100 100 96 97
74 77 79 68 68 72 74 85 82 77 75 79 80 85 87 90 91 93 96 91 90 93 94 92 96 95 96 95 99 100 100 97 98 99 98 100 100 100
79 75 77 67 68 68 73 70 69 69 76 78 79 83 84 84 83 84 82 88 89 89 86 89 93 93 94 96 96 96 96 100 98 98 98 95 93 94
71 69 62 64 64 67 65 66 67 76 76 78 80 80 77 73 70 71 74 77 94 88 90 81 85 88 90 93 91 95 94 97 100 99 98 97 97 96
65 67 62 60 60 64 64 66 69 70 72 74 73 69 61 59 58 54 58 59 61 61 68 72 76 83 81 84 87 86 83 89 90 93 93 100 98 98
66 67 68 64 63 62 61 60 60 59 63 66 67 64 59 53 52 49 51 56 61 60 60 55 75 73 74 84 82 79 79 82 84 84 85 85 94 91
64 72 77 75 69 63 64 63 62 60 60 59 62 59 60 59 57 52 51 57 57 51 50 50 55 60 55 74 62 70 70 73 78 83 85 83 84 83
67 70 75 74 67 57 59 59 64 62 60 57 60 63 65 60 61 57 57 57 57 47 43 42 47 58 71 78 55 61 69 71 74 74 80 77 84 83
55 62 67 64 57 52 54 58 59 62 62 60 65 68 71 65 66 60 58 66 58 48 42 36 40 47 64 76 79 71 66 77 77 80 81 72 68 78
52 51 58 58 54 52 68 71 73 72 71 72 68 66 74 64 63 59 60 63 60 45 46 41 37 51 43 49 72 64 55 68 77 75 77 81 77 68
61 53 53 57 64 64 72 75 72 71 70 67 72 74 75 68 66 64 66 66 53 50 43 36 33 35 41 48 56 63 53 56 55 72 80 86 84 88
70 62 65 68 67 68 60 70 68 72 70 74 74 68 74 70 61 61 63 59 54 54 48 46 41 38 41 43 52 57 61 64 53 65 75 80 76 79

GFSNE_sfc_rhum_141.txt.gz
RH
82 81 78 78 76 64 69 81 93 93 81 68 68 64 74 82 82 79 83 100 100 100 100 100 100 100 100 99 98 95 95 94 93 91 90 91 90 89
84 83 80 78 74 70 69 76 81 86 94 75 69 63 68 71 98 89 89 100 100 100 100 100 100 100 100 100 99 99 98 96 95 94 93 92 92 91
89 88 88 83 83 83 80 77 80 83 90 81 77 72 76 76 87 92 94 92 98 100 100 100 100 100 100 100 100 100 99 98 98 97 95 95 93 92
89 88 89 79 86 85 88 85 89 84 93 90 89 84 90 90 83 88 86 76 84 85 94 100 100 100 100 100 100 100 100 100 100 99 98 97 96 94
92 89 89 88 89 86 85 88 88 83 92 94 95 90 94 95 95 86 87 87 80 83 99 100 100 100 100 100 100 100 100 100 100 100 100 100 99 97
93 94 92 89 90 89 86 86 81 86 86 87 91 93 94 91 91 92 92 89 91 76 89 98 100 100 100 100 100 100 100 100 100 100 100 100 100 100
95 92 92 97 88 88 87 90 85 85 86 86 88 88 92 97 98 99 95 96 97 92 92 94 93 95 94 92 91 96 98 100 100 100 100 100 100 100
89 84 81 86 98 96 88 85 88 91 90 89 91 93 94 95 96 96 95 95 96 91 92 96 94 97 95 94 94 94 94 95 98 100 100 100 100 100
87 84 79 76 78 78 79 81 83 83 87 88 93 96 94 96 94 88 92 95 96 90 92 98 94 98 96 94 93 93 94 95 94 93 94 97 99 100
84 85 87 85 81 78 80 84 87 88 89 90 93 94 93 90 94 85 84 95 93 90 91 98 94 97 98 97 91 92 93 94 93 94 94 93 94 95
83 79 81 83 72 76 84 86 86 87 78 70 72 73 73 74 80 85 91 87 91 95 92 97 95 96 100 100 99 86 88 90 92 90 91 92 94 94
78 82 68 73 69 70 85 86 89 88 85 83 84 82 80 80 73 88 91 90 93 89 92 96 95 95 95 100 100 98 98 88 87 90 94 93 93 96
75 81 81 65 66 68 70 82 81 81 79 83 84 85 84 84 84 84 85 92 90 90 87 91 92 92 92 95 100 100 98 98 97 96 88 91 92 96
79 76 76 63 64 64 70 66 66 73 82 84 84 85 85 82 81 80 80 82 89 84 84 86 90 93 93 92 94 91 95 100 100 98 97 91 91 96
70 69 59 59 61 68 62 63 71 79 82 83 84 84 81 77 74 72 71 71 77 86 82 78 83 85 88 90 92 90 89 90 95 96 96 98 97 96
65 66 63 63 64 67 70 70 75 76 76 78 77 73 63 62 60 55 57 62 63 61 63 73 73 78 80 79 79 84 83 88 87 87 90 90 99 97
65 66 68 65 63 63 62 65 64 62 65 70 69 65 60 52 51 48 50 56 63 63 61 54 66 66 70 79 86 76 76 77 78 79 84 87 89 92
62 71 76 75 68 62 64 63 63 63 61 59 63 60 61 61 57 52 50 56 57 52 50 53 58 58 55 58 61 70 70 70 70 74 77 92 81 94
65 68 74 73 65 54 58 59 64 63 60 58 62 64 65 62 65 56 57 56 57 48 43 43 49 60 71 81 56 50 70 70 75 71 70 80 93 79
53 59 65 62 56 51 55 59 62 67 64 62 67 69 73 69 67 60 58 70 58 48 42 36 38 47 64 77 77 66 62 86 75 73 74 74 72 76
52 49 56 56 54 52 68 71 73 71 73 74 71 72 78 67 68 60 63 67 65 47 47 42 38 53 46 51 74 67 58 54 69 77 69 74 77 76
61 54 54 58 64 64 70 74 71 71 70 68 78 82 78 72 72 66 69 69 56 53 46 39 35 37 43 50 59 68 59 59 54 59 75 78 77 84
69 63 66 68 67 68 62 71 69 71 69 72 76 74 80 79 74 66 69 62 56 57 51 51 46 42 46 48 58 62 65 73 68 55 52 74 81 77

GFSNE_sfc_rhum_144.txt.gz
RH
85 84 84 83 78 75 78 80 88 93 84 76 90 81 91 94 91 90 92 100 100 100 100 100 99 99 99 98 97 95 94 93 92 90 91 90 90 88
93 90 89 88 85 82 82 83 86 87 90 74 79 91 90 84 86 97 94 100 100 100 100 100 100 100 100 100 100 99 98 97 96 94 93 92 92 90
96 94 89 84 90 90 90 91 92 93 92 83 90 91 90 94 93 97 99 99 99 100 100 100 100 100 100 100 100 100 100 100 99 97 96 94 93 93
96 90 91 79 88 87 89 88 92 92 96 93 92 96 98 91 94 94 90 84 92 95 100 100 100 100 100 100 100 100 100 100 100 100 99 98 96 95
96 96 93 88 90 89 88 89 88 84 92 95 95 89 91 91 90 90 91 91 81 85 90 92 97 99 100 99 98 99 100 100 100 100 100 100 100 99
96 96 97 95 94 91 88 90 84 87 87 89 89 90 89 86 89 94 93 93 93 81 89 93 93 94 94 95 95 95 97 99 100 100 100 100 100 100
89 90 95 97 96 96 90 92 90 89 87 87 90 90 95 96 98 95 94 96 98 94 93 93 94 93 93 92 92 94 95 94 96 99 100 100 100 100
88 83 79 82 83 88 94 94 88 90 90 88 91 93 95 96 95 95 96 97 97 94 97 97 96 97 98 97 97 95 95 94 92 93 93 94 98 99
86 85 80 75 79 78 76 78 79 77 83 89 93 96 94 96 95 92 95 94 96 93 95 99 95 100 99 97 95 96 97 97 97 96 94 92 93 96
84 84 86 83 79 82 83 84 87 85 84 87 90 90 87 86 92 85 86 94 94 88 89 98 95 96 99 99 90 91 90 94 97 96 96 94 93 95
84 78 79 80 69 75 85 87 88 88 77 70 69 70 70 70 75 85 89 87 96 96 87 98 93 94 99 100 99 85 84 85 83 84 88 95 92 93
83 83 66 70 67 68 84 86 89 90 86 84 84 79 79 76 73 84 92 90 92 94 89 96 93 92 96 100 100 97 94 88 87 86 84 86 89 97
86 86 82 64 65 67 70 80 81 84 84 85 85 85 82 82 81 83 84 96 91 98 89 91 94 93 96 96 94 87 92 98 96 94 87 87 84 89
88 86 80 62 63 64 69 66 66 79 83 84 84 85 84 84 84 85 83 82 95 93 94 93 97 95 96 96 96 88 94 93 92 92 91 83 87 85
85 69 59 59 61 73 63 64 74 80 82 83 85 85 85 81 81 76 81 78 82 78 88 90 94 89 94 95 90 93 93 90 89 89 88 90 96 99
87 85 85 79 82 83 81 76 79 79 82 83 84 81 75 72 70 64 68 68 72 70 67 79 80 85 93 80 94 85 82 90 87 85 86 86 88 100
84 84 83 80 79 78 76 76 77 74 77 80 81 79 75 71 68 62 64 68 74 72 70 61 67 74 73 79 85 78 81 79 81 82 83 84 85 99
81 85 87 86 81 78 79 80 81 80 78 76 80 78 76 77 73 67 67 72 73 68 65 61 64 64 60 62 55 73 74 75 77 80 90 90 85 84
81 83 86 85 80 74 78 79 83 83 79 78 83 84 81 76 79 72 73 73 71 66 58 54 59 66 74 81 61 50 71 73 87 85 82 94 90 79
70 76 80 79 74 72 78 81 82 83 82 81 87 91 91 82 84 78 75 81 74 63 59 53 55 60 73 79 77 69 52 66 72 79 93 87 82 70
69 68 75 77 76 74 85 85 85 84 84 87 87 85 90 84 86 82 80 81 75 62 65 60 53 60 54 60 75 71 62 53 56 68 75 86 89 86
80 73 74 80 84 83 85 87 85 86 84 87 89 88 87 87 88 87 84 84 72 70 62 53 48 49 58 64 71 73 68 66 56 53 60 70 88 96
88 83 85 87 85 86 81 87 87 88 87 90 89 86 87 89 87 86 84 80 72 73 62 64 58 56 59 60 70 75 73 70 67 68 69 74 66 67

GFSNE_sfc_rhum_147.txt.gz
RH
95 92 90 87 86 79 78 80 90 95 82 79 90 90 96 95 94 94 97 98 100 100 100 100 100 100 99 97 96 95 94 93 93 93 90 91 89 88
97 98 95 90 89 89 91 87 89 95 91 84 85 86 94 87 91 95 96 98 98 99 100 100 100 100 100 100 100 99 98 96 96 96 95 94 92 90
97 96 96 96 93 90 90 93 94 95 95 88 86 96 94 94 90 93 90 92 92 95 95 98 100 100 100 100 100 100 100 100 100 99 98 97 96 94
94 96 93 90 95 93 91 90 92 94 97 98 92 93 92 89 88 93 89 86 90 92 92 93 94 95 97 98 99 100 100 100 100 100 100 100 97 95
94 95 96 92 93 92 90 91 90 84 91 92 93 86 89 86 89 86 89 91 86 92 93 92 92 92 93 93 94 95 98 99 99 100 100 100 100 100
93 95 97 96 96 95 90 90 86 88 86 88 90 91 90 86 90 94 92 93 92 85 89 92 89 89 91 92 92 91 93 95 96 97 99 100 100 100
86 81 87 92 95 96 93 94 90 87 86 86 88 88 93 95 98 95 93 94 95 92 92 94 92 92 95 94 95 96 94 93 94 94 94 95 97 98
89 84 79 80 87 78 81 84 90 94 93 87 88 91 94 94 93 95 93 94 92 85 98 94 95 97 97 97 97 94 96 98 97 97 95 95 95 97
86 86 80 75 79 79 79 82 83 77 83 86 93 95 93 95 93 89 93 89 84 85 93 94 88 98 98 97 86 91 97 99 98 98 99 98 96 98
91 84 86 83 79 82 84 86 87 87 83 86 88 88 86 84 92 84 82 94 93 80 87 97 89 94 99 98 82 80 84 88 92 92 94 97 98 98
88 79 81 81 69 76 86 88 87 89 78 71 68 69 68 68 73 85 86 84 96 97 83 99 90 94 96 97 97 73 83 84 80 84 84 90 91 93
85 89 65 71 67 70 85 87 91 92 89 85 86 79 80 76 71 83 94 86 94 93 86 97 88 94 96 97 90 87 90 82 73 74 71 79 86 96
91 92 83 65 66 66 71 81 82 90 86 86 86 86 83 80 81 81 83 95 88 99 90 89 89 88 98 94 91 89 91 92 88 84 74 76 81 87
95 95 78 62 65 65 69 68 71 84 86 85 86 88 87 86 82 84 79 82 82 85 86 92 97 89 92 94 96 93 85 86 88 87 87 78 78 88
87 72 64 62 66 82 65 66 81 86 85 86 88 90 91 86 78 78 74 74 74 73 77 77 79 86 95 91 91 88 87 84 85 87 88 89 88 95
90 86 88 83 87 90 90 83 86 85 90 91 91 86 82 79 74 71 73 72 74 74 68 70 74 79 76 77 92 85 83 89 83 83 85 89 85 86
90 88 88 89 85 85 84 84 86 86 87 90 90 83 80 79 74 68 70 73 80 80 75 65 70 69 70 78 94 78 80 80 80 82 88 91 82 89
86 91 94 95 92 90 92 91 90 89 88 89 91 85 81 82 83 72 72 78 79 74 71 69 71 69 64 65 56 76 75 77 77 72 77 89 89 82
87 92 98 97 94 89 92 91 93 89 85 88 91 93 88 84 87 81 79 80 77 68 65 61 66 74 83 89 68 53 75 72 74 77 76 81 87 82
80 88 93 92 88 86 88 90 90 90 89 93 93 94 94 91 92 89 84 90 80 68 65 56 61 66 80 88 87 74 55 73 78 79 78 73 72 69
82 84 91 90 88 84 95 94 99 94 95 97 93 91 93 93 92 91 91 93 84 69 68 62 58 64 59 63 82 78 69 57 62 72 77 88 86 82
95 88 88 92 96 93 98 100 94 95 94 91 96 97 95 94 93 94 97 93 82 72 63 56 50 55 58 68 79 79 74 70 61 60 60 68 94 96
99 98 98 100 97 98 93 98 97 99 94 94 94 93 98 95 92 90 96 91 79 75 68 68 66 59 62 66 74 79 77 73 66 65 67 65 60 60

GFSNE_sfc_rhum_153.txt.gz
RH
96 94 96 99 99 96 92 85 92 90 75 71 79 93 93 93 94 90 91 94 94 95 96 97 98 98 99 99 99 99 99 99 96 95 94 92 91 89
91 93 91 94 99 99 97 94 92 93 89 79 96 93 91 84 90 90 91 91 92 93 94 94 94 93 94 94 94 95 96 98 98 99 97 95 94 92
90 94 94 95 96 98 99 95 94 95 96 96 92 91 92 93 91 89 86 87 89 91 91 92 92 93 94 93 93 93 93 94 95 95 97 99 98 95
93 94 94 91 96 97 98 99 95 93 97 97 93 94 92 90 89 91 84 80 85 86 88 89 89 90 91 91 92 92 93 93 93 94 96 95 97 97
94 95 95 94 94 95 97 96 96 83 92 92 95 91 90 89 90 87 84 86 75 81 84 88 85 85 86 87 87 88 90 91 91 92 93 95 96 96
92 89 93 95 96 96 94 96 96 95 94 92 92 92 89 81 88 90 93 88 89 78 83 88 84 80 80 78 82 82 82 84 88 90 92 95 96 95
87 82 84 81 79 85 93 95 93 88 84 84 88 90 94 93 96 85 91 92 90 91 85 89 91 84 82 77 77 76 75 72 75 82 86 89 93 94
91 84 77 79 82 80 78 74 80 91 94 89 89 88 94 95 96 89 86 91 90 88 95 85 89 93 86 81 76 74 72 70 72 76 80 84 85 91
92 89 78 70 72 71 79 85 79 78 82 86 92 95 93 96 92 88 78 81 84 84 89 81 83 95 86 80 69 74 75 72 69 73 76 79 85 84
93 91 90 87 79 76 77 87 91 91 87 89 93 90 87 90 92 82 84 85 78 79 90 87 90 92 93 91 69 66 74 73 70 74 76 75 78 85
93 82 89 84 71 75 86 88 88 92 83 76 73 74 75 74 83 81 88 85 91 95 89 98 95 97 96 98 92 65 71 72 73 76 77 76 75 85
90 85 67 74 69 71 87 87 90 96 94 90 88 85 83 81 78 90 91 87 96 95 90 96 92 99 97 98 98 84 86 73 75 74 74 75 74 86
92 93 84 67 69 70 72 83 85 94 93 92 91 89 87 86 86 88 91 93 93 98 90 98 91 96 99 98 96 90 87 90 89 86 75 73 73 77
95 94 84 70 69 72 76 73 74 90 90 91 92 94 92 90 90 90 90 90 96 95 94 88 98 99 100 99 98 95 85 91 88 88 86 78 75 76
88 76 73 75 81 88 75 82 96 92 90 90 94 96 100 97 87 83 81 88 85 87 84 92 94 97 99 100 99 96 96 85 85 88 87 88 89 88
94 93 92 90 91 93 94 92 94 95 96 97 97 97 94 87 82 76 80 80 84 82 72 81 80 87 97 97 98 96 90 95 87 86 85 84 81 82
91 90 93 94 93 93 91 91 92 91 93 94 93 95 93 87 80 74 74 82 95 85 82 73 79 81 82 94 97 96 84 85 84 82 82 85 82 83
88 98 100 100 98 96 96 96 95 94 91 89 90 88 93 93 87 81 79 88 85 74 74 73 74 76 70 77 64 93 82 83 81 80 81 90 86 79
94 99 100 100 99 94 96 96 99 97 88 88 91 92 93 91 92 88 86 84 79 67 68 65 70 81 90 92 76 54 79 78 82 83 81 85 88 81
91 99 100 99 92 91 93 95 95 95 92 89 95 98 98 96 96 94 92 100 86 69 69 61 65 71 88 99 98 78 61 76 82 87 85 81 78 66
88 92 98 95 88 85 99 99 100 100 100 100 98 97 100 97 97 94 96 99 94 75 76 70 58 69 64 72 94 86 71 62 67 74 83 91 91 81
95 92 86 89 96 95 98 100 100 100 98 96 100 100 100 100 100 99 98 99 94 87 77 63 51 55 65 78 84 85 78 71 63 64 60 62 87 95
98 98 97 99 99 98 86 98 97 100 100 100 99 98 100 100 98 98 98 95 93 90 85 78 67 63 68 71 80 86 79 75 72 72 66 59 63 59